NOAA 16 DEB, 41207

Orbit data source: Space-Track

NOAA 16 DEB, 41207 is space debris in SSO originally from a launch on Thu, 21 Sep 2000 UTC launched from the Air Force Western Test Range (AFWTR). Debris objects in space refer to the collection of defunct objects orbiting the Earth. Examples of debris include non-operational satellites, rocket bodies, and fragments generated from explosions, collisions, or faulty payload assembly.

Loading next visibility...
NOAA 16 DEB details
Identifier
41207, 2000-055DL
Orbit
SSO
Last TLE update23 hours ago
Origin
Flag of USNOAA (US)
ManufacturerUnknown
MissionSpacecraft
Bus & MotorUnknown
MassUnknown
Launch date (UTC)
2000-09-21 (24 years ago)
Launch vehicleUnknown
Launch site
Air Force Western Test Range (AFWTR)
Object type
Payload
Rocket body
Debris
Shape & HBRUnknown
Radar Cross SectionSmall (<0.1 m²)

Expand to show TLE details & history

TLE from 23 hours ago
0 NOAA 16 DEB
1 41207U 00055DL  24360.54549541  .00029643  00000-0  63690-2 0  9996
2 41207  98.9349 205.5908 0047188 128.4109 232.1339 14.57785035473361
Epoch: 2024-12-25T13:05Z
Definitive object data (Epoch: 2024-12-25T13:05:30.803Z)
Latitude-0.00001°
Longitude-85.32525°
Altitude723.898 km
Speed7.482 km/s
True Right ascension13h 42m 21s
True Declination0° 00' 00"
Sunlit
Object was in daylight at TLE epoch
Visualization TLE readout
Latitude-77.56908°
Longitude-39.12147°
Altitude757.632 km
Speed7.459 km/s
Apparent Right ascension21h 56m 37s
Apparent Declination-65° 35' 34"
Sunlit
Object is in daylight
Visualization observer readout
Local Sidereal Time11:08:06
Azimuth164.133° S
Elevation-62.37°
Doppler factor1
Orbital elements
Apogee altitude730.843 km
Perigee altitude664.066 km
Semi-major axis7,075.591 km
Eccentricity0.0047188
Inclination98.9349°
RAAN205.5908°
Arg. of periapsis128.4109°
True anomaly231.70856°
Mean anomaly232.1339°
Eccentric anomaly231.92108°
Mean motion3.64669 °/min
BSTAR0.006369
Orbital period98.72 mins
Loading maneuver chart data...
Loading historical data...
Loading historical data...
Loading historical data...
Loading historical data...
Loading historical data...
Loading historical data...
Loading historical data...

NOAA 16 DEB Visibility forecast

Observer location: undefined°, undefined

Span
Click to sort rows by Start time (UTC) header in descending order
Start Az.
Max El. time (UTC)
Max El. Az.
Max El.
End time (UTC)
End Az.
8 mins2024-12-26 13:55:41.910Z169.136° S2024-12-26 13:58:41.910Z193.886° SSW43.754°2024-12-26 14:03:41.910Z344.291° N
5 mins2024-12-27 01:56:41.910Z63.598° ENE2024-12-27 01:58:41.910Z99.641° ESE20.749°2024-12-27 02:01:41.910Z144.224° SSE
6 mins2024-12-27 03:33:41.910Z341.619° N2024-12-27 03:35:41.910Z303.789° NW28.239°2024-12-27 03:39:41.910Z230.855° WSW
|